Regional Weather Roundup
Issued by NWS

Home | Current Version | Previous Version | Text Only | Print | Product List | Glossary Off
Versions: 1 2 3 4 5 6 7 8 9 10 11 12 13 14 15 16 17 18 19 20 21 22 23 24 25 26 27 28 29 30 31 32 33 34 35 36 37 38 39 40 41 42 43 44 45 46 47 48 49 50

000
ASUS43 KOAX 232110
RWRNE

WEATHER ROUNDUP FOR NEBRASKA
NATIONAL WEATHER SERVICE OMAHA NE
400 PM CDT WED APR 23 2014

NOTES: SATELLITE DATA IS BEING USED TO AUGMENT CLOUD COVER ABOVE
       12000 FEET.
       "FAIR" INDICATES FEW OR NO CLOUDS BELOW 12,000 FEET WITH NO
       SIGNIFICANT WEATHER AND/OR OBSTRUCTIONS TO VISIBILITY.

  * THESE STATIONS DO NOT REPORT WEATHER SUCH AS RAIN...SNOW OR FOG.

NEZ001>004-019>022-054>056-232200-
NEBRASKA PANHANDLE

CITY           SKY/WX    TMP DP  RH WIND       PRES   REMARKS
SCOTTSBLUFF    MOSUNNY   65  20  17 W26G44    29.66S
ALLIANCE       MOSUNNY   68  20  16 NW26G39   29.63S
CHADRON        MOSUNNY   69  25  19 W26G35    29.62S
KIMBALL        PTSUNNY   60  22  23 N23G38    29.67R
SIDNEY         MOSUNNY   70  27  20 N28G38    29.65S
$$

NEZ057>060-069>072-079>082-232200-
SOUTHWEST NEBRASKA

CITY           SKY/WX    TMP DP  RH WIND       PRES   REMARKS
NORTH PLATTE   MOSUNNY   79  41  25 N15G22    29.55S
IMPERIAL       SUNNY     79  33  19 N16G25    29.58R
LEXINGTON      CLOUDY    80  46  29 NW14G21   29.52S
MCCOOK         CLOUDY    79  44  28 N9G18     29.54F
OGALLALA       SUNNY     74  22  14 NW25G35   29.59S
$$

NEZ005>010-023>029-035>040-094-232200-
NORTH CENTRAL NEBRASKA

CITY           SKY/WX    TMP DP  RH WIND       PRES   REMARKS
VALENTINE      MOSUNNY   74  29  19 NW20G28   29.54R
AINSWORTH      MOSUNNY   78  39  24 NW17      29.53S
BROKEN BOW     CLOUDY    77  42  28 NW13      29.55R
O`NEILL        MOSUNNY   79  41  25 S15G28    29.51F
ORD            PTSUNNY   79  50  36 S17G28    29.51S
THEDFORD       MOSUNNY   77  24  14 NW20G28   29.57S
$$

NEZ041-046>049-061>064-073>077-083>087-232200-
SOUTH CENTRAL NEBRASKA

CITY           SKY/WX    TMP DP  RH WIND       PRES   REMARKS
GRAND ISLAND   SUNNY     80  51  36 S28G39    29.54F
AURORA         SUNNY     80  50  35 S26G39    29.56F
HASTINGS       MOSUNNY   78  49  35 S15G29    29.53F
HEBRON         PTSUNNY   77  45  32 S28G41    29.60F
HOLDREGE       PTSUNNY   81  46  29 SW13G21   29.51F
KEARNEY *      MOSUNNY   82  52  34 S26G35    29.51F
YORK           PTSUNNY   75  48  38 S24G35    29.60F
$$

NEZ011>018-030>034-042>045-232200-
NORTHEAST NEBRASKA

CITY           SKY/WX    TMP DP  RH WIND       PRES   REMARKS
NORFOLK        MOSUNNY   73  45  36 S25G36    29.60F
ALBION         MOSUNNY   74  45  35 S23G33    29.57F
BLAIR          LGT RAIN  55  45  68 SE17G26   29.69F
COLUMBUS *     MOSUNNY   68  45  42 S29G38    29.62F
FREMONT        PTSUNNY   60  45  57 SE20G33   29.67F
TEKAMAH        PTSUNNY   62  45  53 SE25G32   29.69F
$$

NEZ050>053-065>068-078-088>093-232200-
SOUTHEAST NEBRASKA

CITY           SKY/WX    TMP DP  RH WIND       PRES   REMARKS
LINCOLN        CLOUDY    64  44  48 SE18G28   29.68F
OMAHA EPPLEY   LGT RAIN  54  44  69 SE23      29.72S
BEATRICE       CLOUDY    71  45  39 SE24G30   29.63F
FALLS CITY     CLOUDY    65  46  50 SE24G35   29.69F
NEBRASKA CITY  CLOUDY    59  45  58 SE31G37   29.70S
PLATTSMOUTH    CLOUDY    56  46  67 SE20G28   29.70S
$$

NEZ044-045-051>053-067-232200-
OMAHA AREA

CITY           SKY/WX    TMP DP  RH WIND       PRES   REMARKS
OMAHA EPPLEY   LGT RAIN  54  44  69 SE23      29.72S
BLAIR          LGT RAIN  55  45  68 SE17G26   29.69F
FREMONT        PTSUNNY   60  45  57 SE20G33   29.67F
MILLARD        CLOUDY    54  46  76 SE14      29.71F
OFFUTT AFB     PTSUNNY   54  48  79 SE6       29.75R
PLATTSMOUTH    CLOUDY    56  46  67 SE20G28   29.70S
WAHOO          FAIR      60  43  52 SE25G32   29.68F
$$



USA.gov is the U.S. government's official web portal to all federal, state and local government web resources and services.